EHI
0 0 0 0 0 0 0 0 0 0 0 0 0 0 0 0 0 0 0 3 10 13 10 5 2 0 0 0 0 0 0 0 0 0 0 0 0 1 1 1 0 0 0
0 0 0 0 0 0 0 0 0 0 0 0 0 0 0 0 0 0 0 2 7 11 11 8 4 1 0 0 0 0 0 0 0 0 0 0 0 0 0 0 0 0 0
0 0 0 0 0 0 0 0 0 0 0 0 0 0 0 0 0 0 0 0 2 5 8 7 5 1 0 0 0 0 0 0 0 0 0 0 0 0 0 0 0 0 0
0 0 0 0 0 0 0 0 0 0 0 0 0 0 0 0 0 0 0 0 0 1 2 4 4 2 0 0 0 0 0 0 0 0 0 0 0 0 0 0 0 0 0
0 0 0 0 0 0 0 0 0 0 0 0 0 0 0 0 0 0 0 0 0 0 0 1 2 2 0 0 0 0 0 0 0 0 0 1 0 0 0 0 0 0 0
0 0 0 0 0 0 0 0 0 0 0 0 0 0 0 0 0 0 0 0 0 0 0 0 1 1 0 0 0 0 0 0 0 0 0 0 0 0 0 0 0 0 0
0 0 0 0 0 0 0 0 0 0 0 0 0 0 0 0 0 0 0 0 0 0 0 0 0 0 0 0 0 0 0 0 0 0 0 0 0 0 0 0 0 0 0
0 0 0 0 0 0 0 0 0 0 0 0 0 0 0 0 0 0 0 0 0 0 0 0 0 0 0 0 0 0 0 0 0 0 0 0 0 0 0 0 0 0 0
0 0 0 0 0 0 0 0 0 0 0 0 0 0 0 0 0 0 0 0 0 0 0 0 0 0 0 0 0 0 0 0 0 0 0 0 0 0 0 0 0 0 0
0 0 0 0 0 0 0 0 0 0 0 0 0 0 0 0 0 0 0 0 0 0 0 0 0 0 0 0 0 0 0 0 0 0 0 0 0 0 0 0 0 0 0
0 0 0 0 0 0 0 0 0 0 0 0 0 0 0 0 0 0 0 0 0 0 0 0 0 0 0 0 0 0 0 0 0 0 0 0 0 0 0 0 0 0 0
0 0 0 0 0 0 0 0 0 0 0 0 0 0 0 0 0 0 0 0 0 0 0 0 0 0 0 0 0 0 0 0 0 0 0 1 1 1 0 0 0 0 0
0 0 0 0 0 0 0 0 0 0 0 0 0 0 0 0 0 0 0 0 0 0 0 0 0 0 0 0 0 0 0 0 0 0 0 1 2 2 1 0 0 0 0
0 0 0 0 0 0 0 0 0 0 0 0 0 0 0 0 0 0 0 0 0 0 0 0 0 0 0 0 0 0 0 0 0 0 0 0 1 2 1 0 0 0 0
0 0 0 0 0 0 0 0 0 0 0 0 0 0 0 0 0 0 0 0 0 0 0 0 0 0 0 0 0 0 0 0 0 0 0 0 0 1 1 0 0 0 0
0 0 0 0 0 0 0 0 0 0 0 0 0 0 0 0 0 0 0 0 0 0 0 0 0 0 0 0 0 0 0 0 0 0 0 0 0 0 0 0 0 0 0
0 0 0 0 0 0 0 0 0 0 0 0 0 0 0 0 0 0 0 0 0 0 0 0 0 0 0 0 0 0 0 0 0 0 0 0 0 0 0 0 0 0 0
0 0 0 0 0 0 0 0 0 0 0 0 0 0 0 0 0 0 0 0 0 0 0 0 0 0 0 0 0 0 0 0 0 0 0 0 0 0 0 0 0 0 0
0 0 0 0 0 0 0 0 0 0 0 0 0 0 0 0 0 0 0 0 0 0 0 0 0 0 0 0 0 0 0 0 0 0 0 0 0 0 0 0 0 0 0
0 0 0 0 0 0 0 0 0 0 0 0 0 0 0 0 0 0 0 0 0 0 0 0 0 0 0 0 0 0 0 0 0 0 0 0 0 0 0 0 0 0 0
0 0 0 0 0 0 0 0 0 0 0 0 0 0 0 0 0 0 0 0 0 0 0 0 0 0 0 0 0 0 0 0 0 0 0 0 0 0 0 0 0 0 0
0 0 0 0 0 0 0 0 0 0 0 0 0 0 0 0 0 0 0 0 0 0 0 0 0 0 0 0 0 0 0 0 0 0 0 0 0 0 0 0 0 0 0
0 0 0 0 0 0 0 0 0 0 0 0 0 0 0 0 0 0 0 0 0 0 0 0 0 0 0 0 0 0 0 0 0 0 0 0 0 0 0 0 0 0 0
0 0 0 0 0 0 0 0 0 0 0 0 0 0 0 0 0 0 0 0 0 0 0 0 0 0 0 0 0 0 0 0 0 0 0 0 0 0 0 0 0 0 0
0 0 0 0 0 0 0 0 0 0 0 0 0 0 0 0 0 0 0 0 0 0 0 0 0 0 0 0 0 0 0 0 0 0 0 0 0 0 0 0 0 0 0
0 0 0 0 0 0 0 0 0 0 0 0 0 0 0 0 0 0 0 0 0 0 0 0 0 0 0 0 0 0 0 0 0 0 0 0 0 0 0 0 0 0 0
Wind_Speed
2 3 2 2 3 2 2 3 3 3 3 3 3 3 2 2 3 3 3 12 14 14 14 14 13 12 10 10 9 9 9 9 9 10 11 11 12 12 11 11 11 11 10
2 2 2 2 2 2 3 3 4 3 3 2 3 2 3 2 3 3 3 6 12 13 13 14 14 13 12 11 10 10 9 9 10 10 11 12 12 12 12 11 11 11 10
2 2 2 2 2 2 2 2 3 2 3 3 3 3 2 2 2 3 3 3 5 10 12 13 13 13 13 12 11 11 10 10 10 11 11 12 12 12 12 12 11 11 10
4 2 2 2 2 1 1 2 2 2 3 3 2 2 2 2 2 3 3 4 4 5 8 12 12 13 13 13 13 12 12 11 11 12 12 12 12 12 12 12 12 11 10
5 3 2 3 2 1 1 2 1 2 2 3 3 3 3 3 3 3 3 4 4 4 4 8 12 13 13 13 14 14 13 13 13 13 13 13 13 12 12 12 12 11 11
4 4 3 4 3 2 1 1 1 1 2 2 3 3 3 3 3 3 4 3 3 5 5 5 6 9 13 13 13 14 15 14 14 14 14 14 13 13 13 13 13 12 11
4 4 4 4 4 2 2 2 1 1 1 1 0 2 2 3 4 4 3 3 4 4 5 6 5 5 6 13 13 14 16 16 16 16 16 15 15 14 14 14 13 13 12
4 4 4 4 4 3 4 3 2 1 1 0 1 0 2 2 2 3 4 4 4 3 4 6 6 7 6 5 9 14 14 14 16 17 17 16 16 15 15 15 14 14 13
4 4 4 4 4 3 3 3 2 1 1 1 1 1 1 2 2 2 2 3 4 3 4 4 6 7 7 6 6 11 14 14 16 18 18 18 17 16 16 16 15 15 14
4 4 4 4 4 3 3 3 3 1 0 1 1 1 2 2 1 3 3 2 3 4 4 5 6 6 7 6 7 11 15 15 16 19 19 19 19 18 17 16 16 15 15
4 4 3 4 4 3 3 3 3 2 1 0 1 1 1 1 2 2 3 3 2 3 4 5 4 5 6 6 6 10 15 16 17 18 19 20 20 20 19 18 17 17 16
3 4 4 4 4 3 3 3 2 3 2 1 1 1 1 1 1 2 2 2 3 3 3 4 5 5 6 6 10 14 16 17 18 18 18 18 19 20 21 20 20 19 18
2 4 4 4 3 3 3 3 3 3 2 2 1 1 1 2 2 2 2 2 3 3 3 3 4 5 6 5 7 13 14 17 17 18 17 17 17 19 20 21 21 20 20
3 4 4 4 4 4 4 3 2 3 2 3 3 2 2 2 2 3 3 2 2 2 2 4 2 4 5 5 7 12 10 16 18 18 18 17 17 18 18 19 20 20 20
3 3 3 4 4 4 3 3 3 3 3 3 3 3 2 2 2 2 3 3 3 2 3 3 3 3 4 4 7 7 8 14 18 18 18 18 18 18 18 18 18 17 17
3 3 3 3 3 3 3 3 3 3 4 4 3 4 3 2 2 2 2 2 3 4 3 3 3 3 3 4 7 7 8 13 17 18 18 18 18 18 18 17 17 16 16
2 3 3 2 2 2 2 3 3 4 5 5 5 4 5 4 3 2 2 2 2 3 4 4 3 2 3 4 3 4 6 7 8 17 18 18 18 18 18 18 17 17 16
2 2 2 2 2 2 2 2 3 4 4 5 5 5 5 4 4 3 2 2 2 3 3 5 3 2 4 4 4 4 5 6 6 12 17 19 19 18 18 18 17 17 17
1 2 1 1 2 2 1 2 2 3 4 4 5 5 5 5 4 3 3 2 2 2 2 3 3 2 2 2 2 3 4 4 6 8 12 16 17 18 18 18 17 17 17
1 1 2 2 2 2 2 2 2 3 4 5 5 5 5 4 4 4 3 3 2 2 2 2 3 3 3 2 2 3 3 3 4 5 7 9 13 16 17 17 18 18 18
2 2 2 3 3 3 3 3 3 4 4 6 6 5 6 7 7 4 3 3 2 2 2 2 3 2 3 2 3 2 3 3 3 4 4 5 6 7 10 14 17 18 18
3 3 3 4 4 4 5 6 4 4 4 5 6 6 6 5 6 8 8 6 4 3 3 3 3 4 4 3 3 3 3 2 3 3 4 5 5 6 7 8 13 18 19
3 4 4 4 5 6 9 9 7 3 4 4 5 5 5 5 5 4 6 8 6 7 6 4 5 6 5 4 3 4 4 4 4 3 3 4 4 6 5 7 14 17 20
4 4 5 5 5 7 10 9 8 4 3 4 5 5 4 5 5 5 4 4 5 5 5 4 5 6 6 5 5 5 5 4 3 3 4 4 4 4 4 6 12 16 18
5 5 5 5 6 8 10 10 7 2 3 5 5 4 4 4 8 7 4 5 6 6 6 7 8 9 11 11 7 4 4 4 4 3 4 4 3 3 3 5 8 15 17
6 5 6 6 6 7 10 11 8 3 3 4 4 5 6 7 8 8 4 4 7 7 6 7 7 7 6 7 9 7 5 5 4 3 4 4 3 3 3 3 4 6 9
Wind_Direction
282 279 266 254 245 228 219 216 216 221 227 222 223 222 234 250 250 227 228 219 207 198 191 188 188 186 185 183 180 176 173 170 168 167 164 161 157 152 149 148 146 143 139
310 298 291 273 256 235 225 217 217 216 223 223 225 214 229 243 259 237 221 220 212 202 194 192 191 190 189 187 184 180 177 175 173 172 169 165 162 158 156 156 153 152 149
345 336 333 306 279 253 230 224 228 217 221 222 221 218 219 228 244 236 221 217 214 210 203 198 195 194 194 193 190 186 183 180 178 176 174 171 168 165 163 163 160 158 155
2 359 349 325 307 295 257 230 219 223 229 228 228 229 219 223 237 234 225 222 215 213 212 206 199 197 198 198 196 193 189 185 183 182 179 175 172 170 169 168 167 165 163
8 9 352 333 334 332 309 278 223 210 225 237 239 233 221 215 220 230 227 223 217 214 209 213 206 201 201 202 201 199 195 191 189 187 184 180 176 176 177 176 174 172 171
9 13 5 353 353 0 346 324 270 225 222 233 255 253 236 221 206 212 219 223 217 220 212 211 207 209 207 204 205 204 201 197 195 193 190 187 184 183 184 184 182 180 180
10 20 11 2 3 6 352 340 311 268 260 216 249 294 280 239 221 215 206 210 218 221 213 209 206 202 208 209 208 208 206 202 199 198 195 193 190 189 190 190 190 189 188
9 21 17 8 5 7 8 3 13 12 325 144 157 218 312 315 262 220 200 207 215 211 214 214 208 205 202 198 208 209 210 207 204 202 200 197 195 194 195 196 197 195 195
5 13 14 12 10 19 6 354 9 40 326 302 209 170 190 260 311 311 233 223 212 206 212 210 209 206 206 201 201 210 210 209 209 207 205 202 200 199 199 200 201 201 200
358 5 10 11 8 10 4 349 14 359 83 303 305 240 211 194 235 319 317 266 230 219 215 218 211 206 206 202 206 207 209 209 211 211 209 207 205 204 203 203 204 204 204
348 351 0 5 1 354 352 353 356 360 358 254 272 296 308 250 197 210 281 307 296 244 221 218 213 209 206 204 206 213 209 209 212 214 214 211 209 208 208 207 208 208 208
330 336 345 352 348 347 346 346 350 355 352 336 295 245 208 227 229 213 242 268 275 268 238 216 212 210 208 206 214 215 210 210 213 215 215 215 213 212 211 210 210 211 212
317 318 334 336 334 332 339 353 5 355 350 350 318 276 241 231 220 210 223 251 265 278 273 241 219 211 215 209 216 215 213 211 213 215 216 216 214 214 214 213 213 213 213
281 299 324 334 336 341 355 5 9 352 356 346 332 315 281 263 235 213 204 206 259 279 268 260 250 218 217 209 216 211 214 212 212 213 214 214 214 214 214 215 216 215 215
296 321 335 339 346 358 7 10 8 356 355 349 336 330 311 283 268 243 221 198 202 248 269 256 250 239 219 215 213 209 211 211 210 212 214 214 214 214 214 214 215 215 213
320 336 343 345 352 4 9 15 2 353 359 345 337 340 329 303 294 274 240 221 206 210 247 262 250 262 249 237 220 214 217 215 212 213 215 216 216 215 214 213 213 211 208
320 333 338 348 357 1 2 11 356 358 356 342 340 340 327 314 304 297 275 238 220 209 242 265 256 257 242 244 237 221 220 218 218 217 216 218 220 219 216 214 212 209 207
322 337 356 4 356 356 354 1 350 355 348 335 329 331 327 331 319 300 287 265 245 227 229 259 270 262 249 242 235 231 226 221 220 220 218 219 220 220 217 214 211 208 205
319 345 4 348 329 321 324 327 325 328 325 317 314 315 313 323 317 305 294 277 264 261 236 247 266 260 262 252 243 241 232 226 223 224 219 220 221 221 217 213 211 208 205
264 289 285 282 280 273 270 284 303 311 315 313 310 305 301 297 289 289 284 274 273 279 270 261 266 268 261 258 230 234 238 222 224 222 220 218 220 221 220 216 213 210 207
247 256 270 282 284 267 246 251 279 296 308 313 314 310 303 305 302 299 288 266 257 264 275 270 272 272 266 254 241 231 236 235 232 213 211 214 210 215 218 221 219 215 210
260 264 266 270 276 272 271 265 265 279 295 303 308 311 311 313 327 333 327 313 271 247 253 258 262 261 262 252 248 242 236 230 246 213 202 220 202 215 216 214 215 212 210
248 258 261 259 262 269 273 275 275 267 279 290 295 303 312 319 329 320 318 320 313 296 268 246 252 254 256 246 240 245 235 230 235 219 195 229 209 219 218 219 212 209 209
238 244 251 252 255 264 267 268 271 266 272 282 285 287 291 300 304 310 307 311 305 299 290 271 248 255 256 255 238 237 240 248 255 239 193 222 214 220 219 218 215 211 208
239 238 242 245 249 264 267 261 257 242 268 283 287 288 288 288 298 313 306 303 304 300 294 287 274 272 270 270 255 232 228 230 249 240 200 208 210 209 217 225 218 210 207
238 243 248 244 243 254 263 259 244 213 254 275 287 287 289 289 296 307 292 287 293 294 301 306 301 295 282 277 264 231 219 224 233 241 208 196 198 182 224 226 213 207 208